Location: Hampton (historical)
(38.5950°N, 99.4796°W)
Time: 03:09:01
(UTC+00:00)

Daily predictions for brighter satellites

Satellite Brightness Start Highest point End
(mag) Time Altitude Azimuth Time Altitude Azimuth Time Altitude Azimuth
Cosmos 1934 Rocket 4.0 02:27:07 10° N 02:33:17 81° E 02:39:29 10° S
Cosmos 1315 Rocket 3.6 02:31:48 10° N 02:35:40 37° ENE 02:39:28 10° SE
Cosmos 1707 3.2 02:35:00 10° SSE 02:38:39 43° E 02:42:22 10° NNE
NOSS 8 (A) 4.3 02:35:10 10° SSW 02:38:59 84° ESE 02:42:02 10° NE
Cosmos 1844 Rocket 4.3 02:34:50 10° N 02:38:59 20° NE 02:43:08 10° E
Meteor 1-21 4.3 02:33:38 10° S 02:39:12 63° E 02:44:46 10° NNE
IRS-1A Rocket 4.5 02:36:54 10° SSE 02:42:43 68° ENE 02:48:28 10° N
Ariane Rocket 3.1 02:40:36 10° SSE 02:45:38 66° ENE 02:50:43 10° N
SPOT 3 Rocket 4.4 02:42:30 10° SE 02:47:08 35° ENE 02:51:49 10° N
CENTAUR R/B 3.8 02:41:48 10° WSW 02:47:21 45° NW 02:53:55 10° NNE
ERS-2 2.6 02:44:13 10° N 02:47:50 65° WNW 02:51:27 10° SSW
Cosmos 1954 Rocket 4.1 02:42:30 10° NNW 02:47:52 85° ENE 02:53:09 10° SSE
Cosmos 676 Rocket 4.1 02:43:59 10° NNW 02:49:22 85° ENE 02:54:41 10° SSE
Meteor 2-20 4.5 02:44:23 10° S 02:50:24 64° E 02:56:24 10° NNE
Okean 2 Rocket 4.5 02:49:01 10° NNW 02:53:13 40° W 02:57:26 10° SSW
Lacrosse 5 1.9 02:48:42 10° NW 02:53:48 87° NE 02:58:35 12° SE
Cosmos 2263 Rocket 2.6 02:48:09 10° NNW 02:53:48 67° WSW 02:59:25 10° S
Lacrosse 5 rocket 1.0 02:51:17 10° SSW 02:55:02 67° SE 02:58:39 10° NE
Cosmos 1758 3.7 02:52:30 10° N 02:56:20 46° E 03:00:01 11° SSE
In-Cosmos 22 4.2 02:52:36 10° S 02:57:42 53° E 03:02:50 10° NNE
ATLAS 2A CENTAUR R/B 4.2 02:39:28 10° SW 02:57:44 28° S 03:03:32 12° SE
Cosmos 1975 Rocket 3.5 02:59:25 10° SSE 03:03:28 40° E 03:07:35 10° NNE
Landsat 7 4.2 02:59:40 11° SE 03:04:02 48° ENE 03:08:37 10° N
Cosmos 1727 Rocket 4.1 02:58:48 10° S 03:05:01 65° E 03:11:14 10° NNE
Cosmos 1110 Rocket 4.2 03:03:21 10° S 03:08:16 47° ESE 03:13:15 10° NNE
Cosmos 1605 Rocket 4.2 03:04:11 10° N 03:10:35 82° W 03:16:54 10° S
Resurs 01 Rocket 1.6 03:06:34 11° SSE 03:10:43 69° ENE 03:15:06 10° N
KORONAS-FOTON 4.1 03:12:02 12° SSE 03:15:22 47° E 03:19:01 10° NNE
USA 81 4.0 03:14:58 10° N 03:20:15 76° E 03:25:11 12° S
Cosmos 1953 3.0 03:17:29 10° N 03:21:17 37° ENE 03:23:32 20° SE
Cosmos 2333 Rocket 2.8 03:16:36 10° S 03:21:46 36° ESE 03:26:57 10° NE
Cosmos 1674 2.6 03:19:14 13° S 03:22:27 59° E 03:26:06 10° NNE
Cosmos 2219 Rocket 3.0 03:19:18 13° SSE 03:23:27 31° ESE 03:28:22 10° NE
Cosmos 1726 3.3 03:22:21 10° NNW 03:25:46 40° W 03:29:11 10° SSW
BREEZE-M DEB (TANK) 1.2 03:23:34 10° WSW 03:25:52 82° NNW 03:28:56 10° NE
ASTRO E2 3.7 03:25:54 10° SW 03:29:14 26° S 03:30:13 23° SSE
FALCON 9 DEB 2.8 03:28:56 10° SW 03:32:02 90° SSE 03:35:10 10° NE
Cosmos 1844 4.3 03:28:25 10° N 03:33:44 43° ENE 03:37:07 21° ESE
Cosmos 1459 Rocket 4.2 03:28:18 10° N 03:34:12 53° E 03:38:14 21° SSE
Cosmos 1300 4.5 03:38:49 10° NNE 03:41:26 17° ENE 03:42:05 17° E
Cosmos 1000 Rocket 4.4 03:35:49 11° S 03:41:43 74° E 03:47:51 10° N
Cosmos 2237 Rocket 4.1 03:44:16 12° E 03:44:16 12° E 03:45:44 10° ENE
ERS-1 Rocket 3.7 03:44:13 24° ESE 03:46:39 39° ENE 03:51:19 10° N
Cosmos 1340 3.1 03:46:02 33° SE 03:47:01 41° E 03:50:35 10° NNE
Cosmos 1850 Rocket 4.1 03:41:46 10° NNW 03:47:03 77° WSW 03:50:27 22° S
Cosmos 2360 Rocket 2.7 03:41:37 10° SW 03:47:11 61° WNW 03:52:47 10° NNE
ARIANE 5 R/B 3.0 03:45:36 28° SE 03:47:39 50° ENE 03:51:59 10° N
FALCON 9 DEB 4.3 03:46:00 10° WSW 03:48:55 39° NW 03:51:52 10° NE
Cosmos 1544 Rocket 3.9 03:44:44 10° N 03:49:06 51° E 03:50:53 31° SE
Spot 2 Rocket 3.6 03:46:39 26° SE 03:49:27 63° ENE 03:54:28 10° N
SL-16 R/B 4.5 03:45:58 10° WSW 03:50:40 26° WNW 03:55:23 10° N
Cosmos 2322 Rocket 4.0 03:45:53 10° WSW 03:50:59 33° WNW 03:56:08 10° N
Cosmos 1331 Rocket 4.2 03:47:34 10° SSW 03:52:46 73° WNW 03:58:04 10° NNE
Cosmos 1455 Rocket 3.1 03:49:08 10° N 03:53:37 82° W 03:56:07 26° S
FALCON 9 DEB 4.0 03:52:53 10° WSW 03:55:52 45° NW 03:58:53 10° NE
SPOT 1/Viking Rocket 3.6 03:54:25 22° S 03:57:45 74° WSW 04:02:54 10° NNW
JB-3 4.4 03:55:52 10° N 03:59:52 79° W 04:02:28 22° SSW
SL-8 R/B 4.0 03:55:38 10° NW 04:00:24 61° NNE 04:02:54 27° E
ATLAS 3B R/B 2.5 03:54:07 10° SSW 04:00:38 89° ESE 04:07:22 10° NNE
Cosmos 2123 Rocket 4.0 04:03:19 23° S 04:07:24 73° E 04:13:43 10° N
Cosmos 1908 3.6 04:04:19 10° NNW 04:08:08 59° W 04:09:39 32° SSW
Uosat 12 SS-18 rocket 4.0 04:06:19 30° S 04:08:18 62° ESE 04:12:58 10° NE
Meteor 1-16 Rocket 4.4 04:04:07 10° NNW 04:09:27 62° W 04:12:43 23° SSW
Cosmos 2061 Rocket 4.1 04:03:38 10° N 04:10:03 66° E 04:13:09 31° SSE
Cosmos 1461 3.1 04:06:42 10° NW 04:10:47 59° WSW 04:11:53 41° S
Cosmos 1900 4.3 04:06:46 10° NNW 04:11:40 74° ENE 04:13:22 40° SE
Cosmos 1626 2.7 04:10:27 25° SSW 04:12:21 53° W 04:15:59 10° N
Aureole 1 Rocket 4.3 04:06:06 10° NNW 04:12:31 78° WSW 04:17:14 26° S
Cosmos 2322 3.7 04:07:24 10° SSW 04:13:02 82° WNW 04:18:44 10° NNE
Cosmos 1302 Rocket 3.9 04:09:48 20° SSW 04:13:31 85° ESE 04:18:48 10° NNE
COSMOS 2428 2.6 04:10:08 22° S 04:13:54 69° ESE 04:19:36 10° NNE
Terra 2.2 04:12:29 36° ESE 04:13:55 48° ENE 04:18:30 10° N
ATLAS CENTAUR R/B 1.9 04:11:18 10° NNW 04:15:38 55° NE 04:16:58 39° ESE
Cosmos 1346 Rocket 4.1 04:17:00 26° E 04:17:00 26° E 04:19:57 10° NNE
Cosmos 2233 Rocket 4.5 04:11:38 10° N 04:17:28 43° ENE 04:19:39 32° ESE
SPOT 5 2.9 04:16:00 38° SSE 04:17:59 79° ENE 04:22:56 10° N
Cosmos 1025 Rocket 3.8 04:15:21 19° SSW 04:18:19 51° W 04:22:36 10° N
Cosmos 1536 Rocket 3.5 04:17:04 42° S 04:18:33 80° E 04:23:01 10° N
Cosmos 2278 Rocket 3.8 04:15:43 10° N 04:20:06 22° NE 04:22:35 17° E
IUS-18 SRM-1 4.2 04:13:49 10° WSW 04:20:37 24° SSW 04:20:37 24° SSW
BREEZE M DEB (TANK) 4.5 04:17:42 10° SW 04:22:13 66° SE 04:40:12 10° NE
Cosmos 1844 Rocket 3.0 04:17:43 10° NNW 04:23:17 59° WSW 04:25:49 32° S
SL-4 R/B 1.8 04:23:59 36° SSW 04:25:34 68° SE 04:29:29 10° NE
Cosmos 2228 4.1 04:24:53 10° NNE 04:28:46 30° ENE 04:29:00 29° E
USA 215 3.4 04:24:11 10° ENE 04:30:25 46° SE 04:32:55 32° S
CARTOSAT-1 4.2 04:29:12 34° SSW 04:30:40 48° W 04:34:51 10° NNW
Lacrosse 5 rocket 4.3 04:32:11 10° WNW 04:34:26 15° NNW 04:36:39 10° N
Lacrosse 5 4.1 04:33:50 10° W 04:36:05 13° WSW 04:37:47 11° SW
SL-08 R/B 4.5 04:30:40 10° N 04:37:03 84° W 04:39:42 37° S
Cosmos 1867 4.3 04:35:27 10° NNW 04:40:39 42° NE 04:42:25 33° E
Cosmos 2016 Rocket 4.2 04:35:46 10° NNW 04:41:47 65° W 04:44:37 32° SSW
Cosmos 405 3.4 04:39:15 10° NNW 04:42:28 55° W 04:42:28 55° W
Meteor 2-10 Rocket 3.5 04:45:36 10° N 04:50:36 59° E 04:51:13 55° ESE
Cosmos 968 Rocket 3.3 04:47:30 10° NNW 04:52:38 78° ENE 04:53:28 62° SE
Cosmos 1980 3.7 04:53:24 53° SE 04:54:02 56° ESE 04:59:36 10° NNE
H-2A R/B 3.7 04:50:47 10° N 04:54:49 62° WNW 04:55:23 55° WSW
Cosmos 1486 Rocket 4.1 04:49:42 10° N 04:54:52 60° ENE 04:55:40 53° ESE
Cosmos 1725 Rocket 4.3 04:49:39 10° NNW 04:55:41 58° W 04:58:14 34° SSW
Cosmos 1992 Rocket 3.9 04:57:08 56° SSW 04:58:16 89° ESE 05:03:32 10° NNE
Meteor 2-5 Rocket 4.3 04:56:51 27° SW 04:59:39 51° WNW 05:05:07 10° N
DNEPR-1 R/B 3.8 05:00:35 10° NW 05:04:43 56° WSW 05:04:43 56° WSW
Cosmos 2333 Rocket 3.9 05:00:58 10° WSW 05:06:02 31° WNW 05:11:06 10° N
Cosmos 1455 3.6 05:03:45 10° NNE 05:06:21 30° NE 05:06:21 30° NE
Cosmos 2219 Rocket 3.6 05:02:07 10° SW 05:07:16 35° WNW 05:12:28 10° N
ATLAS CENTAUR R/B 3.0 05:08:15 49° ESE 05:08:15 49° ESE 05:16:28 10° NE
Cosmos 2058 Rocket 4.1 05:10:48 10° N 05:14:26 34° ENE 05:14:26 34° ENE
Cosmos 1726 Rocket 3.8 05:11:53 10° N 05:15:58 61° NE 05:15:58 61° NE
Cosmos 1300 4.4 05:13:51 10° NNW 05:17:01 26° W 05:17:01 26° W
SL-16 R/B 3.3 05:25:28 29° E 05:25:28 29° E 05:29:30 10° NE
Cosmos 2237 Rocket 2.1 05:26:03 60° SW 05:27:05 82° WNW 05:32:45 10° NNE
SJ 16-02 3.8 05:28:29 10° NE 05:30:17 12° ENE 05:30:53 12° ENE
Cosmos 1606 Rocket 3.9 05:27:15 10° NNW 05:31:19 62° WNW 05:31:19 62° WNW
Cosmos 1892 Rocket 3.8 05:32:32 70° NNW 05:32:32 70° NNW 05:36:34 10° N
Cosmos 2034 Rocket 4.3 05:35:52 10° N 05:41:52 51° E 05:42:38 48° ESE
ALOS 2 3.5 05:43:59 40° NE 05:43:59 40° NE 05:47:37 10° N
COBE Rocket 4.0 05:47:21 66° ENE 05:47:21 66° ENE 05:52:10 10° N
GEOS 3 Rocket 4.0 05:47:15 52° E 05:48:06 59° NE 05:53:22 10° NNW
Terra 3.9 05:51:22 16° W 05:51:54 16° W 05:54:48 10° NW
NOSS 3-1 (C) 3.7 05:53:14 44° E 05:53:14 44° E 05:57:50 10° NE
ATLAS CENTAUR R/B 3.9 05:51:30 10° WNW 05:53:06 14° W 05:53:06 14° W
Cosmos 1503 Rocket 4.1 05:49:24 10° NNW 05:54:40 68° W 05:54:40 68° W
Cosmos 1626 Rocket 4.3 06:01:20 50° NNE 06:01:20 50° NNE 06:04:45 10° NNE
NOSS 3-1 (A) 4.4 06:04:55 28° E 06:04:55 28° E 06:08:32 10° NE
Cosmos 2278 Rocket 2.5 05:59:00 10° NNW 06:04:25 52° WSW 06:04:25 52° WSW
SL-4 R/B 4.2 06:02:06 10° W 06:05:23 23° NNW 06:08:29 10° NNE
Tsikada Rocket 3.9 06:05:58 64° ESE 06:06:22 66° E 06:12:28 10° NNE
Cosmos 1602 Rocket 4.4 06:09:18 45° NE 06:09:18 45° NE 06:12:38 10° NNE
Nimbus 7 Rocket 4.4 06:03:43 10° NNE 06:09:46 69° ESE 06:10:03 68° ESE
USA 215 4.0 06:07:09 10° NE 06:13:25 51° NW 06:19:41 10° WSW
Meteor 1-11 4.3 06:17:12 65° E 06:17:12 65° E 06:22:35 10° NNE
Thor Agena Rocket 3.8 06:19:16 10° NNE 06:23:55 58° ENE 06:23:55 58° ENE
Cosmos-2242 4.5 06:22:02 10° NNE 06:25:20 31° ENE 06:25:20 31° ENE
Cosmos 1943 Rocket 2.7 06:28:02 10° NNW 06:33:23 49° ENE 06:33:59 47° E
Cosmos 1607 4.4 06:30:14 10° NW 06:36:00 47° WSW 06:36:00 47° WSW
Cosmos 1943 4.4 06:38:48 29° E 06:38:48 29° E 06:42:59 10° NE
Cosmos 1777 Rocket 4.3 06:36:04 10° NNW 06:40:42 59° WNW 06:40:42 59° WNW
NOSS 2-3 (D) 4.4 06:44:37 46° NNE 06:44:37 46° NNE 06:47:56 10° NNE
USA 267 3.5 06:41:13 30° ESE 06:44:32 64° NE 06:50:59 10° NW
Cosmos 724 4.2 06:38:23 10° NNW 06:44:33 87° ENE 06:44:54 80° SE
CZ-2D R/B 4.4 06:45:27 10° ENE 06:46:50 11° E 06:47:12 11° E
Cosmos 1812 Rocket 4.4 06:44:46 10° NNW 06:47:58 47° NNW 06:47:58 47° NNW
Cosmos 2279 Rocket 4.2 06:52:15 10° N 06:58:24 58° E 06:59:19 53° ESE
NOSS 2-3 (C) 4.4 07:00:53 45° NNW 07:00:53 45° NNW 07:04:46 10° NNE
Cosmos 1634 Rocket 3.8 06:54:39 10° N 07:01:01 83° W 07:01:35 74° SSW
SL-16 R/B 3.3 07:07:20 32° W 07:08:34 35° WNW 07:13:45 10° N
SJ 16-02 2.4 07:04:57 10° NNW 07:07:51 39° NW 07:07:51 39° NW
GP-B 4.2 07:08:17 10° NNW 07:11:37 36° NW 07:11:37 36° NW
Cosmos 1825 Rocket 4.2 07:14:08 52° NNW 07:14:08 52° NNW 07:17:41 10° N
Cosmos 1898 Rocket 4.1 07:11:21 10° N 07:16:24 48° ENE 07:17:07 45° E
Meteor 2-13 Rocket 4.3 07:20:11 74° S 07:20:49 88° E 07:27:01 10° N
Cosmos 2369 Rocket 2.4 07:19:20 10° NNW 07:25:02 68° ENE 07:25:57 58° ESE
Helios 1A 4.0 07:26:31 41° ENE 07:26:31 41° ENE 07:30:14 10° N
Exosat Rocket 4.0 07:27:42 63° SW 07:28:45 79° WNW 07:34:16 10° NNE
Nadezhda 4 Rocket 4.1 07:29:04 53° SE 07:30:03 60° E 07:36:04 10° NNE
CZ-4 R/B 4.0 07:26:01 10° NNE 07:30:18 64° ENE 07:30:18 64° ENE
ATLAS 5 CENTAUR R/B 3.1 07:34:05 24° ENE 07:34:05 24° ENE 07:36:18 10° NE
USA 305 4.1 07:34:41 37° ENE 07:34:41 37° ENE 07:37:24 10° NE
USA 229 DEB 4.1 07:32:11 38° W 07:34:14 51° NW 07:40:49 10° NNE
USA 229 4.1 07:32:19 38° W 07:34:20 51° NW 07:40:55 10° NNE
Cosmos 1953 Rocket 4.3 07:39:07 46° NW 07:39:07 46° NW 07:42:40 10° N
Cosmos 2263 4.4 07:33:42 10° NNW 07:39:21 64° ENE 07:40:42 49° ESE
Cosmos 1892 4.5 07:40:49 26° NW 07:40:49 26° NW 07:43:08 10° NNW
Lacrosse 4 Rocket 4.2 07:38:39 10° NNE 07:40:53 14° NE 07:43:07 10° E
Cosmos 468 Rocket 4.4 07:41:26 50° WNW 07:41:38 50° WNW 07:46:43 10° N
Cosmos 1570 Rocket 4.5 07:43:24 47° ESE 07:43:38 48° ESE 07:48:39 10° NNE
Cosmos 1437 Rocket 3.7 07:40:50 10° N 07:43:43 45° NNE 07:43:43 45° NNE
Meteor 2-2 Rocket 4.3 07:44:11 10° N 07:50:16 84° E 07:51:26 60° SSE
NOSS 3-1 (A) 4.3 07:52:19 28° W 07:54:10 36° NW 07:59:48 10° NNE
Cosmos 1932 4.5 07:48:26 10° NNW 07:54:40 75° ENE 07:57:19 36° SE
USA 306 3.2 07:56:17 62° NE 07:56:17 62° NE 07:59:52 10° NE
Cosmos 1763 Rocket 4.3 07:55:45 36° WNW 07:56:11 37° WNW 08:00:56 10° N
Cosmos 2098 Rocket 3.4 07:56:35 75° S 07:57:04 90° ESE 08:01:48 10° N
Cosmos 921 Rocket 3.1 07:59:46 67° NE 07:59:46 67° NE 08:03:28 10° NNE
Cosmos 2208 Rocket 4.4 07:58:36 51° SE 07:59:18 55° ESE 08:04:37 10° NNE
Cosmos 1842 Rocket 3.6 07:57:43 10° N 08:01:48 77° NNE 08:01:48 77° NNE
SL-16 R/B 3.0 08:00:14 28° SE 08:03:27 56° ENE 08:09:28 10° N
Cosmos 1825 3.8 08:06:51 27° NW 08:06:51 27° NW 08:09:14 10° NNW
Resurs 1-4 Rocket 2.1 08:02:28 10° NNE 08:07:48 71° ESE 08:08:42 59° SSE
X-37B 2.8 08:10:13 23° NNW 08:10:55 25° N 08:13:37 10° ENE
Cosmos 1092 Rocket 3.9 08:09:41 50° SSE 08:11:22 77° E 08:17:31 10° N
Cosmos 2151 3.7 08:11:14 42° ESE 08:11:30 43° E 08:15:29 10° NNE
MOZ.5/SAFIR/RUBIN 5/SL-8 3.7 08:12:42 71° WSW 08:12:45 71° WSW 08:17:31 10° NNW
CZ-4C R/B 4.0 08:12:05 12° ESE 08:13:13 13° ESE 08:15:36 10° ENE
Meteor 2-19 Rocket 4.4 08:12:44 51° S 08:14:25 82° E 08:20:34 10° N
Cosmos 1242 Rocket 3.2 08:13:03 10° N 08:15:50 51° N 08:15:50 51° N
Cosmos 1943 Rocket 3.8 08:12:45 10° NW 08:15:28 19° W 08:15:28 19° W
Cosmos 1076 Rocket 3.4 08:16:52 82° NNW 08:16:52 82° NNW 08:20:59 10° N
ADEOS II 3.0 08:13:54 10° NNE 08:18:49 39° E 08:20:33 30° SE
NPP 3.7 08:15:15 10° NNE 08:20:39 73° ESE 08:21:57 52° S
Cosmos 1943 4.1 08:20:36 31° W 08:22:03 36° WNW 08:27:15 10° N
Meteor 2-3 Rocket 4.4 08:20:40 31° SE 08:22:48 45° E 08:28:06 10° NNE
Cosmos 2058 4.3 08:25:17 27° WNW 08:25:17 27° WNW 08:28:21 10° NNW
CZ-2D R/B 2.0 08:22:13 10° N 08:27:26 78° WNW 08:28:31 56° SSW
USA 267 3.9 08:28:31 33° WSW 08:28:31 33° WSW 08:33:34 10° WNW
AQUA 3.9 08:25:05 10° NNE 08:29:52 72° ESE 08:30:49 55° SSE
GPS 2-04 Rocket1 3.9 08:32:08 31° ESE 08:32:08 31° ESE 08:34:24 10° E
IDEFIX/ARIANE 42P 4.1 08:28:13 10° NE 08:32:38 27° E 08:35:30 17° SE
Cosmos 2221 3.3 08:29:02 10° NNW 08:32:29 37° WNW 08:32:29 37° WNW
ERBS 3.7 08:35:35 31° E 08:35:35 31° E 08:37:45 10° ENE
Cosmos 2195 Rocket 4.5 08:33:17 45° SSW 08:35:22 74° W 08:41:40 10° N
USA 307 3.9 08:38:30 34° WNW 08:39:33 40° NW 08:43:35 10° NE
NOSS 2-2 (D) 3.8 08:39:47 40° NW 08:39:47 40° NW 08:43:04 10° NNE
Cosmos 1633 3.5 08:43:38 36° NW 08:43:38 36° NW 08:46:24 10° N
DELTA 2 R/B (1) 3.6 08:40:36 24° W 08:44:04 81° N 08:49:39 10° E
IRS-1D 3.8 08:45:55 10° NNE 08:50:59 60° E 08:53:07 33° SSE
USA 290 3.9 08:55:04 24° NW 08:55:04 24° NW 08:57:24 10° N
Helios 1B rocket 2.8 08:51:13 10° N 08:55:07 45° WNW 08:55:36 43° W
USA 308 4.3 08:53:50 23° WNW 08:55:35 32° NNW 08:59:26 10° NNE
Cosmos 1656 Rocket 4.4 08:51:34 10° NW 08:56:30 32° WSW 08:56:51 31° WSW
Tianhe-1 3.3 08:58:01 17° ESE 08:58:01 17° ESE 08:59:17 10° E
Cosmos 1606 4.1 08:56:23 10° NNW 08:59:01 25° WNW 08:59:01 25° WNW
Cosmos 2292 Rocket 2.6 09:03:15 74° NW 09:03:15 74° NW 09:06:03 10° N
UNK 4.2 09:06:06 37° WSW 09:06:41 39° W 09:11:02 10° NNW
Meteor 1-28 Rocket 3.5 09:05:33 27° SSE 09:07:29 64° ENE 09:11:16 10° N
BREEZE-M R/B 3.7 09:06:01 21° W 09:08:02 41° NNW 09:13:16 10° NE
Cosmos 2369 Rocket 4.0 09:05:14 10° WNW 09:07:41 15° W 09:07:41 15° W
Cosmos 1933 3.3 09:05:25 10° NNW 09:09:29 68° W 09:10:38 44° SSW
Cosmos 1553 Rocket 3.9 09:05:07 10° N 09:11:25 89° E 09:16:15 18° S
Meteor 2-14 Rocket 4.4 09:07:57 26° S 09:11:35 87° E 09:17:44 10° N
MSX 4.5 09:08:29 10° NNE 09:14:05 51° E 09:18:34 16° S
Meteor 1-29 3.3 09:11:10 10° N 09:14:25 45° WNW 09:14:47 43° W
ATLAS 5 CENTAUR R/B 3.1 09:15:36 17° W 09:17:17 22° NW 09:20:42 10° N
SeaSat 1 2.9 09:12:43 10° NE 09:17:33 53° ESE 09:20:26 23° S
S3M 4.3 09:11:31 10° N 09:17:39 67° E 09:23:50 10° SSE
Cosmos 2298 Rocket 3.9 09:12:38 10° NNW 09:17:59 79° WSW 09:22:33 14° SSE
MINOTAUR 4 R/B 4.2 09:17:41 46° WSW 09:17:59 47° W 09:21:25 10° NNW
DELTA 2 DEB (DPAF) 4.0 09:16:18 23° SSE 09:19:06 86° W 09:23:34 10° NNW
Lacrosse 4 Rocket 1.4 09:15:55 10° NW 09:19:51 50° WSW 09:21:03 37° SSW
USA 281 3.7 09:16:29 10° SE 09:22:56 63° ENE 09:29:25 10° NNW
Cosmos 1151 Rocket 3.0 09:19:46 10° N 09:24:03 82° E 09:27:05 19° S
FALCON 9 DEB 2.9 09:21:58 10° NW 09:25:22 81° SW 09:28:43 10° SE
Landsat 4 4.4 09:23:29 10° N 09:27:01 38° WNW 09:28:03 31° WSW
IRIDIUM 104 4.4 09:23:34 10° N 09:28:43 62° W 09:31:53 23° SSW
Cosmos 2150 Rocket 4.0 09:24:12 10° NNW 09:29:22 66° WSW 09:34:07 13° S
Cosmos 1766 Rocket 3.6 09:27:48 30° SSW 09:29:53 65° W 09:34:21 10° N
Cosmos 1417 Rocket 4.5 09:25:35 10° N 09:31:54 76° W 09:37:47 12° S
Cosmos 1833 Rocket 3.7 09:27:13 13° S 09:31:55 40° ESE 09:37:10 10° NE
Cosmos 1408 Rocket 3.9 09:29:01 18° S 09:32:16 64° E 09:36:42 10° NNE
Cosmos 1862 3.6 09:30:47 20° S 09:33:26 67° E 09:37:28 10° NNE
IKONOS-2 4.5 09:29:49 13° SSE 09:33:35 86° ENE 09:37:49 10° NNW
Alouette 2 Rocket 3.3 09:30:26 10° NNW 09:34:06 85° WSW 09:38:45 10° S
Cosmos 1125 Rocket 3.4 09:31:13 10° NNW 09:36:28 71° WSW 09:41:42 10° S
Lacrosse 5 rocket 4.1 09:33:58 10° NNW 09:36:36 19° NE 09:39:17 10° E
IRS-P3 4.2 09:33:28 10° NNE 09:38:49 77° ESE 09:43:12 15° S
CZ-4B R/B 4.0 09:36:05 10° NNE 09:41:18 60° ESE 09:46:08 11° S
BREEZE-M DEB (TANK) 3.6 09:38:51 22° SSW 09:41:26 43° SSE 09:44:19 10° ENE
Okean 3 Rocket 3.9 09:39:33 26° SW 09:41:42 48° W 09:45:58 10° N
ARIANE 5 R/B 2.7 09:39:01 10° NNE 09:43:59 67° ESE 09:48:35 12° S
ADEOS Rocket 3.7 09:40:16 15° SSW 09:46:04 45° W 09:52:33 10° NNW
Resurs 1-4 Rocket 4.1 09:44:07 10° NNW 09:46:58 15° WNW 09:49:46 10° W
SL-16 R/B 3.8 09:45:19 18° WSW 09:47:21 21° W 09:51:55 10° NW
COSMOS 2441 4.3 09:42:51 10° NNE 09:47:43 86° ESE 09:51:44 15° SSW
X-37B 1.3 09:44:50 10° WNW 09:47:58 55° NNE 09:51:05 10° ESE
deb Kosmos-1763 3.9 09:49:18 23° SSW 09:51:23 85° WNW 09:54:56 10° NNE
Cosmos 2266 Rocket 3.9 09:47:29 15° SSW 09:52:35 70° W 09:58:39 10° N
Cosmos 2082 Rocket 3.8 09:50:38 10° SSE 09:55:27 30° ESE 10:00:17 10° NE
ADEOS II 3.4 09:54:04 10° NNW 09:58:15 25° WNW 10:01:29 14° WSW
FALCON 9 DEB 4.5 09:55:37 10° NW 09:58:34 38° NE 10:01:31 10° ESE
ASTEX 1 3.6 09:55:57 13° SSW 10:00:08 50° W 10:04:56 10° NNW
CZ-4C R/B 2.1 09:57:15 18° SW 10:00:42 63° NW 10:06:18 10° NNE
OAO 3 Rocket 4.2 10:00:37 16° SSW 10:03:29 30° SSE 10:07:40 10° E
CZ-2D R/B 3.4 10:03:09 10° NNE 10:07:20 85° ESE 10:11:22 10° SSW
Cosmos 1812 2.9 10:04:12 10° NNW 10:07:55 50° W 10:11:38 10° S
CZ-2C R/B 2.8 10:07:20 13° SSW 10:09:01 17° SSE 10:11:16 10° ESE
GPS 2-04 Rocket1 2.9 10:06:15 12° W 10:09:46 47° S 10:13:26 10° ESE
ERBS 4.4 10:08:39 10° W 10:10:55 17° NW 10:13:11 10° N
IDEFIX/ARIANE 42P 3.5 10:07:32 10° N 10:12:12 34° WNW 10:16:19 13° SW
CZ-2C R/B 3.8 10:09:32 10° NNE 10:13:13 43° E 10:16:49 10° S
FALCON 9 DEB 2.8 10:11:55 10° NW 10:15:00 86° NE 10:18:03 10° SE
Cosmos 1805 Rocket 4.3 10:11:52 10° S 10:16:06 54° E 10:20:24 10° NNE
Cosmos 1271 Rocket 3.7 10:13:52 10° NW 10:17:03 26° W 10:19:56 12° SSW
Cosmos 1782 4.4 10:14:31 10° NW 10:17:17 18° W 10:19:25 13° SW
Delta 2 Rocket 3.4 10:14:09 13° WSW 10:17:40 51° S 10:21:15 10° E
PAYLOAD A 4.2 10:14:29 10° NNE 10:19:34 78° ESE 10:24:50 10° S
COSMOS 2406 3.2 10:14:08 10° SSW 10:19:47 82° WNW 10:25:29 10° NNE
CZ-4C R/B 4.3 10:18:38 13° SW 10:20:53 22° W 10:23:40 10° NW
CENTAUR R/B 3.8 10:13:07 10° NNW 10:21:24 67° NE 10:30:17 10° SE
Cosmos 2084 Rocket 3.7 10:18:18 13° SW 10:21:35 50° NW 10:25:28 10° NNE
USA 238 DEB 4.4 10:14:27 10° NNW 10:21:45 66° NE 10:29:19 10° SE
USA 238 4.4 10:14:33 10° NNW 10:21:52 66° NE 10:29:26 10° SE
FALCON 9 DEB 3.0 10:19:14 10° NW 10:22:21 75° NE 10:25:25 10° SE
Spot 4 Rocket 4.0 10:17:46 10° NNE 10:22:56 87° WNW 10:28:04 10° SSW
SL-08 R/B 3.3 10:20:16 10° S 10:24:51 60° W 10:29:32 10° NNW
FALCON 9 DEB 2.7 10:22:18 10° NW 10:25:24 78° SW 10:28:27 10° SE
Chandra Rocket (1) 3.9 10:20:30 10° SW 10:26:57 24° S 10:30:12 10° SE
DELTA 2 R/B (1) 3.6 10:25:03 10° W 10:30:36 80° SSW 10:36:10 10° ESE
Tianhe-1 1.1 10:30:14 10° WSW 10:33:24 88° N 10:36:34 10° ENE
CZ-2C R/B 2.4 10:28:37 10° N 10:33:33 83° WNW 10:38:18 10° SSW
Cosmos 1500 Rocket 3.9 10:30:22 10° SSW 10:34:31 46° W 10:38:42 10° N
Cosmos 1656 3.8 10:29:32 10° NNW 10:35:08 58° WSW 10:40:39 10° S
Cosmos 1743 Rocket 4.1 10:34:52 10° SSW 10:39:01 42° W 10:43:14 10° N
